HAIYANG 2B

导读 | 星芒AI

HAIYANG 2B(HY-2B)是中国自主研发的海洋动力环境卫星,于2019年发射。该卫星主要用于监测海面风场、波浪、海流等海洋动力参数,支持海洋预报、防灾减灾和气候变化研究。搭载多种先进遥感仪器,如微波散射计和雷达高度计,具备全天候、全天时观测能力。HY-2B 是中国海洋卫星系列的重要组成部分,提升了国家对海洋环境的实时监测能力。

基本信息
目录编号:
43655
目录名称:
HAIYANG 2B
国际标识:
2018-081A
轨道中心:
EARTH
卫星名称:
HAIYANG 2B
卫星全名:
--
卫星状态:
在轨 (已飞行2562 天)
发射日期:
2018-10-24 UTC
国别 :
中国 (CN)
星等 :
--
轨道信息
数据来源 国际轨道数据
星历时间: 2025-10-28T22:51:51+0800
18小时前
查看轨道信息
半长轴: 7344.474km
偏心率: 0.0001469
轨道倾角: 99.335°
近地点辐角 139.969°
升交点赤经 308.846°
平近点角 220.157°
近地点: 965.26km
远地点: 967.418km
周期: 104.400分钟
每日圈数: 13.793096
详细信息
使用方式:
暂无
2D轨道图
3D轨道图
轨道高度分析图
轨道倾角分析图
轨道综合分析图
查看轨道综合分析图